TimeCDT,TemperatureF,Dew PointF,Humidity,Sea Level PressureIn,VisibilityMPH,Wind Direction,Wind SpeedMPH,Gust SpeedMPH,PrecipitationIn,Events,Conditions,WindDirDegrees,DateUTC
12:54 AM,70.0,64.9,84,29.88,10.0,SSE,6.9,-,N/A,,Clear,150,2013-05-29 05:54:00
1:54 AM,70.0,64.9,84,29.88,10.0,SSE,9.2,-,N/A,,Scattered Clouds,160,2013-05-29 06:54:00
2:54 AM,70.0,64.9,84,29.89,10.0,SE,5.8,-,N/A,,Overcast,140,2013-05-29 07:54:00
3:54 AM,68.0,64.0,87,29.88,10.0,East,4.6,-,N/A,,Clear,100,2013-05-29 08:54:00
4:54 AM,68.0,64.0,87,29.88,10.0,ESE,5.8,-,N/A,,Clear,110,2013-05-29 09:54:00
5:54 AM,68.0,64.0,87,29.88,10.0,SE,9.2,-,N/A,,Clear,140,2013-05-29 10:54:00
6:54 AM,69.1,64.0,84,29.88,10.0,SSE,12.7,-,N/A,,Clear,150,2013-05-29 11:54:00
7:54 AM,72.0,64.9,78,29.89,10.0,SSE,12.7,-,N/A,,Scattered Clouds,160,2013-05-29 12:54:00
8:54 AM,73.0,66.0,79,29.88,10.0,South,15.0,-,N/A,,Clear,170,2013-05-29 13:54:00
9:54 AM,75.9,66.9,74,29.86,-9999.0,North,-9999.0,-,N/A,,Unknown,0,2013-05-29 14:54:00
10:54 AM,-9999,-9999,N/A,29.89,-9999.0,North,-9999.0,-,N/A,,Unknown,0,2013-05-29 15:54:00
11:54 AM,80.1,68.0,67,29.87,-9999.0,SSW,15.0,-,N/A,,Unknown,200,2013-05-29 16:54:00
12:54 PM,81.0,66.9,62,29.85,10.0,South,19.6,-,N/A,,Mostly Cloudy,190,2013-05-29 17:54:00
1:54 PM,82.0,66.9,60,29.84,10.0,South,19.6,26.5,N/A,,Mostly Cloudy,190,2013-05-29 18:54:00
2:54 PM,82.9,66.0,56,29.83,10.0,South,16.1,25.3,N/A,,Mostly Cloudy,190,2013-05-29 19:54:00
3:54 PM,82.0,64.9,56,29.82,10.0,South,18.4,28.8,N/A,,Clear,190,2013-05-29 20:54:00
4:54 PM,82.0,64.0,54,29.80,10.0,South,19.6,26.5,N/A,,Partly Cloudy,180,2013-05-29 21:54:00
5:54 PM,81.0,64.0,56,29.78,10.0,South,11.5,23.0,N/A,,Partly Cloudy,170,2013-05-29 22:54:00
6:54 PM,80.1,64.9,60,29.76,10.0,SSE,15.0,26.5,N/A,,Partly Cloudy,160,2013-05-29 23:54:00
7:54 PM,78.1,63.0,60,29.75,10.0,South,18.4,27.6,N/A,,Clear,170,2013-05-30 00:54:00
8:54 PM,75.0,62.1,64,29.80,10.0,South,11.5,-,N/A,,Clear,170,2013-05-30 01:54:00
9:54 PM,72.0,62.1,71,29.83,10.0,SSE,9.2,-,N/A,,Clear,160,2013-05-30 02:54:00
10:54 PM,71.1,61.0,70,29.85,10.0,SSE,10.4,-,N/A,,Clear,150,2013-05-30 03:54:00
11:54 PM,72.0,60.1,66,29.81,10.0,SE,11.5,-,N/A,,Clear,140,2013-05-30 04:54:00